Tracking 17141 objects as of 5-July-2015
HD Live streaming from Space Station

DELTA 1 DEB

Track DELTA 1 DEB now!
10-day predictions
DELTA 1 DEB is classified as:


NORAD ID: 2888
Int'l Code: 1965-089D
Perigee: 1,158.3 km
Apogee: 2,332.1 km
Inclination: 59.2 °
Period: 121.3 minutes
Semi major axis: 8116 km
RCS: 0.0459 m2 (small)
Launch date: November 6, 1965
Source: United States (US)

Note: This is SATELLITE DEBRIS
Your satellite tracking list
Your tracking list is empty





NASA's NSSDC Master Catalog

Two Line Element Set (TLE):
1 02888U 65089D   15185.55084756 -.00000070  00000-0  34148-4 0  9996
2 02888 059.1974 224.5758 0723115 088.8043 350.8107 11.87333667 99823

Source of the keplerian elements: AFSPC

N2YO: 311